Wind_Speed
35 36 36 29 21 17 18 20 21 24 27 27 27 25 24 24 21 21 24 26 29 32 29 22 20 20 20 19 18 18 17 15 14 13 12 11 11 10 11 10 9 8 7 6 7 7 7 8 10 12 14 15 14 14 17 18 17 18 18 19 20 20 20 21 20 20 20 19 18 16 15 14 13 12 12 11 11 11 11 11 11 11 10 9 7 6
39 40 32 22 19 21 22 22 23 25 28 29 29 26 25 24 20 20 23 25 29 31 26 22 22 22 21 20 19 19 17 15 13 12 12 13 13 11 11 10 9 8 7 7 6 6 6 7 9 11 13 15 15 15 17 18 18 19 19 20 21 21 21 21 22 22 22 22 21 19 18 16 15 13 12 11 11 11 11 12 12 11 10 8 7 6
42 37 25 20 24 27 26 26 26 26 28 31 31 29 26 22 20 23 25 26 29 29 23 22 23 23 22 21 21 21 18 16 16 15 15 16 15 12 11 10 8 7 7 7 6 6 5 6 8 10 13 15 16 17 19 20 19 18 19 20 21 21 22 22 23 23 24 24 23 21 18 17 16 14 13 11 11 11 11 12 12 11 10 8 7 6
39 28 21 27 30 29 29 29 27 27 30 32 33 32 26 22 23 25 24 27 31 29 24 22 22 23 23 25 25 24 21 20 21 20 19 19 16 14 13 12 10 8 6 5 6 6 6 6 7 9 12 14 16 18 20 20 18 18 18 19 21 21 22 22 23 24 25 24 22 19 17 15 14 13 12 11 10 10 11 11 11 11 10 8 7 6
36 24 24 33 33 31 31 30 30 30 31 32 34 32 25 23 23 23 24 29 32 30 28 26 26 27 29 29 28 25 23 23 25 25 22 17 15 15 14 12 11 9 7 5 5 6 6 6 7 9 11 13 14 16 19 19 18 18 18 20 22 22 22 23 23 24 23 22 20 17 15 12 10 10 10 10 10 10 11 11 12 11 10 8 7 6
37 28 30 34 33 34 34 33 32 31 29 31 32 28 24 24 23 23 28 32 33 32 31 30 31 32 32 31 28 26 26 26 27 26 21 15 15 16 13 11 10 10 8 6 4 5 6 6 7 8 11 12 14 16 20 21 20 20 20 20 21 22 23 24 24 23 22 21 19 17 15 13 13 13 13 12 12 11 11 11 12 11 10 9 7 6
40 34 36 37 36 37 37 36 33 30 30 29 25 23 24 26 26 27 32 34 35 33 31 33 34 33 32 31 29 28 27 26 27 26 21 18 17 17 15 12 11 10 9 7 5 5 6 5 6 8 10 13 15 17 21 22 22 20 19 19 20 21 22 23 23 21 21 21 20 19 19 19 18 18 16 14 12 11 10 11 11 11 10 9 8 7
44 40 41 40 39 40 41 38 33 31 31 23 18 23 29 30 29 30 34 36 33 31 33 36 36 35 34 30 27 27 27 26 27 27 23 21 20 19 18 15 12 11 10 9 8 8 7 6 6 7 9 12 14 17 21 22 21 19 19 18 18 19 20 21 21 21 21 21 21 21 21 21 20 17 13 12 11 11 11 11 12 11 10 10 9 7
44 43 43 41 40 41 40 35 30 32 30 21 20 28 31 31 30 33 38 38 34 35 39 40 37 37 36 30 26 26 27 28 28 26 24 23 20 20 20 18 15 11 11 11 11 10 9 8 6 6 8 10 12 15 20 22 21 20 19 18 17 17 18 19 20 21 21 22 23 23 22 21 18 14 11 11 11 12 12 12 12 11 11 10 9 7
45 45 45 44 43 40 37 33 32 35 30 23 26 31 32 32 34 39 44 42 39 43 44 41 39 39 36 32 32 32 31 30 28 25 24 23 21 21 20 19 17 15 13 12 13 13 12 10 8 7 7 8 11 15 19 22 22 21 19 18 17 16 16 17 18 20 22 22 23 23 22 20 17 13 12 12 12 12 12 12 11 11 11 10 8 6
48 49 49 48 45 40 38 36 36 35 30 28 31 33 35 37 39 45 47 43 45 50 46 41 41 41 38 35 36 35 31 28 25 23 21 21 22 23 22 21 20 19 16 14 14 14 13 11 10 8 7 8 12 15 18 21 22 21 19 17 16 16 15 15 17 19 21 22 23 23 22 20 16 14 14 14 14 14 13 12 12 12 11 10 7 6
52 54 53 51 48 44 43 41 39 37 33 35 38 37 39 41 44 49 50 48 52 54 45 39 40 43 43 37 34 33 29 26 24 22 20 20 22 23 22 22 21 20 19 17 16 16 15 13 10 9 9 10 12 13 15 18 20 20 18 17 16 15 15 15 16 18 20 22 23 23 21 19 16 15 16 16 16 15 14 14 13 12 11 10 8 7
57 58 56 54 52 49 47 44 43 41 38 39 42 42 42 44 48 54 55 54 57 55 44 40 42 46 44 35 32 32 29 27 26 24 21 18 19 21 21 21 21 20 20 19 18 18 17 14 11 11 11 11 13 14 15 18 19 19 19 17 16 15 15 15 15 17 18 21 22 22 20 18 16 16 16 16 15 15 15 14 14 13 12 11 10 9
59 60 59 58 56 52 50 48 46 46 44 43 44 45 46 47 52 57 58 57 58 54 45 41 44 48 42 32 30 30 26 27 28 26 21 18 18 20 21 22 22 22 22 21 20 19 17 16 14 13 12 12 13 16 17 18 19 20 19 18 17 15 15 16 16 17 17 19 21 21 20 18 17 17 17 16 15 16 16 16 16 15 13 12 10 9
61 61 60 59 58 54 52 50 46 44 44 43 42 43 44 45 49 53 55 56 56 53 45 42 45 47 38 26 25 26 24 26 28 26 24 21 21 21 22 23 24 24 24 22 21 19 18 18 17 15 14 13 14 16 18 19 20 20 20 19 18 17 16 16 17 17 18 19 20 20 20 19 18 18 17 16 16 16 17 17 17 16 14 12 11 9
65 62 57 56 57 55 53 51 47 45 45 44 43 44 45 44 44 48 51 52 53 51 46 45 47 44 34 23 22 26 26 26 27 27 27 26 24 24 25 26 28 28 26 24 23 20 20 21 20 18 15 14 14 16 18 20 20 20 20 19 19 19 18 17 17 18 19 20 20 20 20 19 19 18 17 16 16 16 18 18 17 17 15 13 11 10
68 64 58 57 59 56 53 51 49 49 47 46 47 48 44 40 40 45 48 49 52 52 46 45 46 42 35 27 25 28 27 24 26 26 26 27 26 25 25 27 29 30 28 26 24 22 22 23 21 18 16 14 13 15 17 19 20 20 20 20 20 20 19 19 18 19 20 21 21 21 21 20 20 19 18 17 17 17 18 18 18 17 15 13 12 11
70 67 63 61 61 58 53 51 50 50 48 47 48 47 42 39 40 42 45 49 52 52 46 44 46 43 36 29 26 28 27 24 25 26 25 26 26 22 19 22 27 29 28 26 25 24 23 24 22 19 17 15 13 14 17 20 21 22 22 22 21 20 20 19 20 20 21 22 22 22 22 21 21 20 19 19 19 19 19 19 18 17 16 15 14 13
71 67 64 63 62 60 57 52 50 50 49 46 45 44 42 42 43 44 46 50 53 54 49 45 46 45 37 29 26 27 27 25 25 26 25 25 24 19 16 18 23 26 27 26 25 26 26 25 24 22 19 17 15 15 18 21 23 23 23 23 22 21 21 22 22 22 22 22 22 22 22 22 22 22 21 20 20 20 20 19 19 18 18 17 16 14
72 69 66 65 64 63 61 56 54 53 51 48 46 45 43 42 42 44 45 46 50 53 50 45 45 43 36 28 25 24 25 26 27 27 25 24 23 19 17 18 19 23 26 26 26 27 26 25 24 23 20 18 17 16 17 20 21 22 22 22 22 22 22 23 23 23 22 21 22 22 22 23 23 22 21 20 19 19 20 20 20 20 19 18 16 15
73 71 67 66 66 64 62 60 57 54 51 51 51 50 47 46 44 43 44 43 45 49 47 44 43 39 33 27 24 22 23 25 28 28 27 26 24 21 20 20 18 21 25 27 28 27 25 25 24 23 21 19 19 19 19 19 20 21 22 22 22 22 22 21 21 21 22 22 22 22 22 23 23 22 21 20 19 20 21 21 20 20 19 18 16 15
74 74 69 67 68 65 63 62 57 53 52 52 53 52 49 49 47 44 46 45 43 46 46 44 41 36 31 26 22 21 21 22 26 28 27 28 27 24 22 22 20 21 24 27 27 26 25 25 24 22 22 21 22 21 19 18 20 21 21 22 22 23 22 20 19 19 21 22 22 22 23 24 24 23 22 20 20 21 21 21 20 19 17 17 16 15
75 75 70 67 68 67 63 62 59 56 54 53 54 53 50 49 49 46 47 46 43 45 45 42 39 31 25 24 24 24 22 21 24 28 29 29 31 27 23 22 21 22 24 27 27 26 26 26 23 22 22 23 23 21 18 18 19 20 21 22 23 23 22 20 19 19 21 22 22 23 24 25 25 24 22 21 21 22 21 20 19 18 17 17 16 15
76 75 71 67 67 65 60 60 59 57 56 55 55 55 52 51 49 47 46 43 42 43 41 39 37 25 20 24 27 27 25 23 24 28 29 30 32 29 25 23 23 22 24 29 30 28 27 26 24 24 23 24 23 20 19 19 20 20 22 24 24 24 23 22 20 21 21 22 23 24 25 25 25 23 22 21 22 21 21 20 19 18 18 18 16 16
76 74 71 67 64 60 56 56 57 58 58 57 56 55 54 52 48 47 45 42 42 41 37 37 33 21 21 26 26 25 25 25 26 28 29 30 31 30 27 27 26 24 24 30 34 31 29 27 26 26 25 25 24 20 19 20 21 22 22 23 24 24 24 23 22 22 22 23 24 24 24 24 23 22 21 22 22 22 21 21 20 20 19 18 17 16
75 75 72 68 64 60 58 58 59 60 61 60 57 55 54 52 49 47 46 44 44 41 37 37 30 21 22 25 22 23 25 25 28 29 28 28 29 28 28 29 29 28 27 32 36 34 31 28 27 26 25 25 23 21 21 22 23 22 22 23 25 25 24 23 22 22 23 24 25 24 24 24 23 22 23 23 23 22 21 21 21 20 20 18 17 16
75 76 73 69 67 64 62 62 63 63 63 62 59 56 54 53 51 48 47 47 45 40 37 36 28 23 24 25 23 23 25 25 26 26 26 28 28 26 26 28 31 31 30 32 35 34 32 29 26 26 26 25 24 23 23 23 23 22 22 23 24 24 24 23 22 22 23 25 25 26 25 25 25 24 25 24 23 22 21 21 21 20 19 18 17 17
74 75 73 69 68 66 64 64 64 64 63 62 60 58 55 53 52 51 50 48 43 40 39 34 27 25 27 26 23 22 23 24 25 25 26 27 25 24 24 26 31 33 32 32 32 32 32 29 27 27 27 26 26 26 25 24 23 23 23 23 23 23 22 22 22 22 24 25 26 26 26 26 26 26 26 25 23 22 21 21 20 20 19 18 18 18
74 73 73 69 67 67 65 63 63 62 61 61 60 59 56 55 54 53 51 48 42 40 38 31 26 27 27 25 23 22 22 23 24 25 24 21 20 22 24 26 28 30 32 32 31 30 30 29 28 28 28 28 27 27 25 24 24 24 23 22 21 21 21 22 22 23 25 26 26 26 26 27 27 27 26 25 23 22 22 21 21 20 20 19 19 18
74 72 72 69 66 66 64 63 62 61 60 60 61 61 59 57 55 53 49 45 42 39 35 29 26 27 27 25 25 26 24 24 24 24 22 19 19 22 24 24 24 25 28 29 29 29 29 29 30 30 29 28 27 26 25 26 26 24 22 21 20 20 21 22 23 24 25 26 26 27 28 28 28 28 27 26 24 23 23 22 21 21 21 20 20 20
73 72 71 68 64 63 63 63 62 60 58 59 61 62 62 58 55 51 46 42 40 38 33 30 28 29 29 28 30 30 27 26 26 25 23 21 21 22 22 22 23 23 25 27 29 30 30 30 32 32 29 27 26 24 25 27 26 23 21 20 19 19 21 22 23 24 25 26 27 28 28 28 28 27 27 26 25 24 23 22 22 22 21 21 20 21
70 72 71 66 63 61 62 63 60 58 57 59 61 62 61 58 52 48 44 42 40 37 33 33 32 32 33 32 33 33 30 29 29 28 27 25 22 21 20 20 22 23 24 27 30 31 32 34 35 33 30 28 26 24 26 28 26 23 20 19 19 20 22 23 24 24 26 27 28 28 27 27 27 26 25 25 24 23 23 23 23 22 21 20 20 21
67 70 70 65 62 61 63 62 57 56 58 59 61 61 59 56 50 46 44 43 41 38 35 35 34 35 37 35 34 35 33 31 30 31 31 28 24 22 19 18 20 21 24 28 30 30 31 34 35 33 30 29 27 25 27 28 25 22 21 19 20 21 21 23 24 25 26 27 27 27 26 26 26 25 25 24 24 24 24 23 22 21 21 21 21 20
67 69 69 63 62 63 64 61 54 53 58 60 61 61 57 53 49 46 45 44 42 39 37 36 35 38 41 39 37 37 36 33 32 32 32 30 26 24 22 19 19 22 25 29 30 27 27 30 33 33 31 30 28 27 29 29 26 24 25 24 23 22 22 22 24 25 26 26 25 25 25 25 25 25 25 24 24 23 22 21 21 22 22 21 20 19
66 67 68 63 62 65 66 61 53 53 59 62 62 60 55 52 50 49 48 47 43 40 38 36 37 40 42 42 40 39 38 36 34 33 32 30 28 26 23 20 19 24 30 31 29 27 27 29 31 32 32 32 31 30 31 31 29 28 28 27 25 25 24 23 24 25 25 23 23 22 22 23 23 23 23 22 22 20 19 19 20 21 22 22 21 21
68 68 67 63 63 67 68 63 55 53 58 62 62 59 54 50 50 50 49 46 43 41 38 37 38 41 44 44 43 42 40 38 36 34 33 31 28 26 23 20 20 24 31 33 32 30 29 29 30 32 34 34 33 32 33 33 31 30 29 28 26 26 25 24 24 25 24 22 21 20 20 20 20 20 20 19 19 19 18 18 19 21 22 23 23 22
70 69 67 62 64 69 69 63 54 50 56 61 62 59 55 51 50 50 48 46 45 43 40 38 40 44 44 44 44 44 44 40 37 36 34 33 31 27 23 22 22 26 31 34 34 34 33 32 33 34 35 36 35 35 35 34 34 32 30 29 27 26 26 25 24 24 23 22 21 20 19 19 19 19 18 18 18 18 18 18 19 20 22 23 24 24
69 71 68 63 65 70 70 64 53 46 52 60 61 60 57 52 51 50 47 46 46 45 42 41 43 46 45 42 41 43 44 42 38 38 38 36 33 28 24 24 25 27 32 35 37 39 38 37 37 37 37 38 38 36 35 34 34 32 30 29 28 27 27 26 25 25 24 22 22 21 21 20 20 20 19 18 18 19 19 19 19 21 22 23 25 26
66 72 70 65 67 72 71 66 55 44 47 57 61 61 58 54 52 51 48 48 48 47 45 43 44 46 45 41 40 41 42 41 39 40 39 37 32 27 24 26 27 28 30 34 37 41 41 39 38 38 38 39 37 34 33 34 34 32 31 30 29 28 28 27 27 27 27 26 24 23 22 21 21 21 20 20 19 20 21 21 20 21 22 24 25 27
62 71 71 66 69 74 72 68 59 46 46 56 61 61 61 56 52 51 50 50 50 50 48 46 46 46 44 41 40 39 38 39 39 38 37 34 30 27 26 28 29 29 28 29 31 35 37 37 36 36 36 36 35 34 34 35 35 34 33 32 31 30 29 29 29 29 28 28 27 25 24 23 23 23 22 21 21 21 22 21 21 22 23 25 27 29
57 69 72 67 69 75 74 69 61 47 44 55 62 62 62 59 55 55 54 52 52 53 52 49 48 47 45 42 41 38 37 38 38 36 35 33 30 27 28 30 31 31 29 27 25 26 29 32 32 32 32 32 33 34 35 35 36 36 36 36 34 33 32 32 31 31 30 29 28 27 26 25 26 25 24 23 23 23 22 22 21 21 22 25 28 30
52 67 73 70 69 75 77 71 61 48 42 51 61 63 64 62 59 60 58 53 54 56 55 52 50 48 46 43 41 40 38 37 36 34 33 33 32 29 30 31 32 33 32 28 25 24 25 27 28 29 30 32 33 34 34 35 36 37 38 38 37 36 35 35 33 32 31 30 29 29 28 27 27 27 27 26 25 24 23 22 21 20 21 23 27 30
49 63 72 73 72 75 77 73 65 53 43 50 60 62 64 67 64 63 61 56 55 58 57 54 52 49 48 46 42 40 39 37 35 34 33 33 34 32 32 33 33 33 32 30 28 26 25 26 28 30 31 32 33 34 35 36 37 37 38 39 39 38 38 37 35 34 32 31 30 30 29 29 28 28 28 28 27 26 25 23 21 21 20 20 23 27
47 60 67 73 74 76 77 74 70 57 46 51 59 57 60 69 68 65 64 58 56 60 60 56 54 52 50 48 45 42 41 39 37 36 35 35 35 34 34 34 34 34 32 30 29 27 27 27 28 29 31 31 33 34 35 36 37 38 38 39 40 40 39 39 38 37 36 35 34 33 33 32 31 30 29 29 29 28 27 26 24 22 21 20 20 23
45 59 63 67 71 76 78 75 72 63 50 49 55 54 58 68 70 66 66 62 59 62 63 58 56 54 52 50 47 44 43 42 40 38 37 36 36 35 35 35 35 34 32 30 29 28 28 28 28 28 29 30 32 33 34 36 37 38 38 39 40 41 41 41 40 39 39 38 37 36 36 35 34 32 31 30 31 31 31 30 29 26 23 21 20 19
38 55 62 65 67 72 76 75 74 70 56 45 50 55 58 65 70 69 68 66 64 65 65 62 60 57 55 53 50 47 45 45 43 41 40 39 37 36 35 35 34 33 31 29 29 29 30 30 29 28 28 28 29 32 33 35 36 36 37 38 39 40 41 41 42 41 41 40 39 38 38 37 36 35 34 34 34 34 34 33 32 30 27 24 22 20
30 43 56 67 69 68 73 75 73 73 64 48 45 51 56 63 70 70 67 68 69 68 67 66 63 61 59 56 53 50 50 49 48 45 44 42 40 38 37 35 35 34 33 31 30 31 31 32 31 30 28 27 27 29 31 33 34 35 36 36 37 38 39 40 41 42 42 42 41 40 39 39 39 39 39 38 37 37 37 36 35 33 30 28 25 23
26 34 46 62 72 72 73 74 72 75 73 58 47 46 49 60 71 69 64 67 71 70 69 69 67 65 63 61 58 56 55 54 52 51 49 48 44 42 40 39 38 37 35 34 33 32 31 32 32 31 30 28 27 28 30 31 32 32 33 33 35 36 37 38 39 40 41 42 42 42 42 42 42 42 42 42 41 40 39 39 38 35 33 31 30 28
22 28 37 53 69 75 74 73 72 74 76 69 56 45 44 55 68 70 65 67 72 72 71 71 70 68 67 64 62 62 61 60 58 56 54 52 49 47 45 43 41 40 38 36 36 34 33 32 33 33 33 32 30 29 30 30 30 30 29 30 30 32 33 35 36 37 38 40 41 41 42 42 42 42 42 42 42 42 42 41 40 39 37 36 35 33
18 23 30 44 61 71 73 73 73 73 74 75 67 53 44 49 62 68 66 68 72 73 72 73 72 70 69 67 66 65 65 65 63 60 56 54 52 50 49 47 45 43 41 39 38 37 35 35 34 35 35 35 34 32 31 30 30 29 27 27 28 29 29 30 32 33 34 35 36 37 37 37 37 37 37 38 39 40 41 41 41 41 40 40 40 38
16 18 25 37 51 63 69 72 73 73 72 74 73 65 52 45 52 63 68 69 72 72 71 73 75 72 70 70 69 68 69 67 65 62 59 56 54 52 50 49 48 45 43 42 40 39 38 37 36 35 35 36 36 35 33 31 30 29 27 26 27 28 28 29 30 30 31 32 32 33 33 33 32 32 32 33 34 35 36 37 38 39 39 39 39 39
Wind_Direction
235 234 232 230 233 239 241 237 231 229 230 231 229 222 219 221 219 215 218 225 229 229 227 222 210 212 215 205 199 205 212 213 217 230 229 219 214 193 164 159 163 165 160 148 147 157 169 182 189 189 183 181 185 190 196 198 192 187 188 188 187 186 183 179 176 175 173 170 168 168 168 166 161 155 150 145 139 135 134 134 134 131 123 118 114 108
234 233 231 228 227 229 228 225 221 222 225 228 228 223 217 214 205 205 214 218 221 221 218 215 208 207 210 207 203 203 202 203 212 232 231 216 215 202 175 167 166 166 162 147 140 146 156 169 181 190 189 183 182 185 192 198 197 191 188 187 187 186 184 181 178 176 176 175 174 175 174 169 164 161 156 151 146 143 140 140 139 135 130 127 124 120
235 232 228 225 225 225 224 222 217 215 219 223 225 223 217 208 198 202 212 215 215 213 209 213 215 211 208 207 205 201 197 200 203 213 219 215 215 207 187 176 169 167 168 156 146 144 150 162 172 183 188 188 186 184 187 194 196 193 190 188 186 187 186 184 182 180 180 180 180 180 176 169 166 164 160 155 149 148 145 144 143 140 138 136 135 132
236 234 228 227 226 224 224 224 220 215 215 218 221 220 212 204 202 204 212 216 215 208 201 208 217 215 211 208 205 200 199 202 199 202 212 215 216 211 200 186 171 170 177 170 159 152 150 158 165 175 186 193 193 188 187 189 192 193 193 189 186 188 190 188 187 186 185 184 182 180 177 171 168 165 161 156 152 153 151 149 149 147 146 146 145 142
232 226 226 229 228 226 226 224 222 219 216 216 219 216 207 205 207 205 210 217 218 211 202 201 207 208 210 210 203 197 199 201 197 199 206 216 223 221 212 191 170 169 177 182 180 167 157 159 167 174 183 192 195 192 188 188 191 195 195 191 188 190 191 191 192 191 189 185 183 179 173 166 160 158 159 158 159 161 161 158 156 155 153 154 155 150
228 220 223 227 225 225 226 225 224 223 219 218 219 213 203 204 206 204 209 215 217 214 206 205 209 209 209 208 198 194 198 197 196 200 204 217 235 236 226 203 182 174 175 183 195 189 174 165 172 177 178 185 191 192 190 189 191 194 194 193 192 192 194 194 194 193 190 186 183 178 170 163 160 164 169 170 170 168 166 164 162 161 160 160 160 155
224 219 222 224 222 222 224 223 222 223 221 219 218 210 202 203 203 204 209 214 217 214 208 211 217 216 215 208 197 194 196 194 196 202 205 214 230 240 240 224 205 190 184 188 194 199 193 176 179 186 183 184 188 190 191 191 191 191 193 194 194 195 198 198 196 192 190 186 182 179 174 173 177 179 178 175 170 164 163 166 165 166 165 162 164 158
219 217 219 221 220 221 222 222 220 223 222 214 206 206 204 203 201 202 209 216 218 216 214 217 220 222 221 210 197 196 196 196 199 200 204 209 218 232 237 233 224 203 192 197 196 194 199 195 190 193 193 193 193 191 190 192 192 190 191 195 197 198 200 201 198 192 189 186 183 183 181 183 189 187 177 170 166 163 166 171 171 171 169 166 168 159
219 218 220 222 222 222 223 222 220 225 221 203 197 206 205 200 196 199 208 214 215 216 219 220 222 225 223 208 196 198 199 200 200 197 200 206 213 224 229 234 238 222 203 201 200 195 196 200 196 195 200 201 198 194 190 191 193 191 190 193 196 198 200 201 199 194 190 188 186 186 186 189 193 186 173 168 170 171 173 174 174 174 171 170 170 160
218 219 221 222 221 221 222 220 219 222 216 199 200 207 204 197 193 197 205 208 211 216 219 220 223 227 225 210 200 202 201 199 197 195 199 205 213 220 224 233 242 237 221 205 201 199 195 197 195 193 199 200 197 196 194 192 193 192 189 189 192 196 200 200 199 198 195 191 189 189 190 192 191 181 174 173 175 178 176 174 175 173 170 171 170 157
214 216 220 220 219 218 219 218 218 219 210 200 203 206 204 197 191 196 203 203 209 219 219 217 222 228 228 217 210 210 203 196 195 193 197 204 211 215 220 227 234 237 233 218 205 202 201 200 189 179 183 193 196 196 196 196 195 194 189 186 188 192 197 198 198 200 198 194 190 192 194 194 188 181 180 180 178 179 176 173 174 170 169 170 165 153
213 214 215 216 216 215 216 215 214 214 207 202 203 203 204 199 192 197 201 200 210 220 217 214 220 228 230 223 219 218 206 194 193 190 193 203 210 215 220 225 227 228 231 227 213 204 207 206 183 170 178 188 194 193 195 199 199 198 192 187 187 188 191 194 195 199 199 196 194 195 197 195 187 184 187 187 182 179 177 173 170 168 168 170 166 160
214 213 212 212 213 213 214 212 210 209 206 204 204 203 204 200 196 199 201 203 212 219 213 209 218 229 231 225 225 225 210 197 193 187 190 200 207 214 216 219 221 220 224 228 221 209 207 207 190 180 183 184 189 189 192 198 199 200 197 191 188 185 186 190 193 196 197 198 198 198 197 194 189 190 194 195 188 180 176 171 168 170 172 173 173 168
216 214 211 210 211 212 213 211 209 208 206 205 206 206 205 202 201 202 203 205 213 217 212 207 218 232 234 225 224 228 216 205 197 186 187 195 201 205 205 208 211 213 218 223 223 213 202 201 197 187 183 183 192 193 192 195 197 199 199 195 189 185 185 187 191 193 194 198 202 200 197 193 192 196 199 199 193 182 176 172 171 174 176 175 173 169
216 214 211 211 211 210 212 212 210 210 209 207 208 211 210 209 209 209 209 210 214 218 214 210 221 234 236 224 219 225 222 216 206 190 185 193 196 197 196 198 201 207 215 221 222 211 195 196 197 187 181 182 192 198 197 196 196 197 199 197 193 188 186 187 191 192 193 197 202 201 197 192 195 202 203 201 197 186 180 178 175 174 177 178 175 173
216 213 210 212 213 211 212 212 209 210 210 207 208 212 213 213 215 215 214 215 218 221 218 218 228 237 238 227 216 219 222 222 216 201 192 194 196 197 195 192 195 202 210 216 218 207 191 193 195 186 178 181 190 199 200 199 197 197 198 199 197 192 187 187 191 193 195 198 200 200 198 194 197 205 207 204 199 193 188 183 179 178 180 181 180 180
215 211 206 210 212 210 211 213 211 211 210 208 208 211 213 212 215 216 216 217 220 224 225 225 232 238 239 231 216 216 220 221 221 212 201 199 199 201 200 193 194 200 206 210 211 205 195 194 194 185 179 181 188 195 199 201 199 197 198 200 201 197 191 189 191 195 198 199 199 199 199 198 200 204 207 205 201 197 194 189 184 184 183 183 186 192
215 212 206 208 209 207 208 211 212 212 211 209 209 211 212 210 212 215 217 219 221 227 229 227 231 237 238 232 219 218 220 217 219 217 210 207 205 203 200 194 195 200 204 205 203 202 200 196 192 188 185 183 186 191 196 198 199 199 198 199 201 199 195 193 195 199 202 201 200 201 202 202 203 205 207 206 202 198 196 192 188 188 187 188 192 196
215 212 206 207 208 206 205 207 210 210 208 209 210 211 212 211 211 211 214 217 221 227 229 226 229 235 235 230 222 221 220 217 221 221 217 215 213 208 198 193 196 200 201 200 199 200 201 196 191 190 189 186 188 194 197 199 201 201 200 199 199 198 197 196 198 201 205 205 203 203 204 205 206 208 209 207 203 198 196 194 190 189 191 193 194 195
214 212 205 205 207 206 205 205 206 206 206 206 207 208 210 213 214 215 215 217 220 226 229 227 229 232 233 229 225 224 221 218 222 227 225 222 221 218 208 200 202 206 202 196 196 200 201 198 194 191 191 190 192 197 200 201 201 203 203 202 201 201 201 200 200 202 205 207 207 206 206 208 209 210 210 208 203 198 197 196 193 192 193 193 194 194
212 211 205 203 206 206 205 205 204 205 205 206 207 206 206 208 210 214 217 218 220 225 229 229 229 231 232 230 229 226 223 220 223 228 229 229 228 224 217 211 206 207 206 199 198 203 206 202 195 190 189 193 197 198 197 196 195 198 203 204 203 204 204 204 204 205 206 208 207 206 206 208 209 211 210 206 200 197 198 198 197 196 194 192 193 192
211 211 204 202 205 205 205 205 203 204 205 206 209 208 206 207 206 208 214 214 217 223 227 228 229 227 227 229 231 230 228 227 230 235 235 235 236 228 219 216 207 202 207 209 207 207 206 201 194 189 189 195 202 200 195 194 193 193 197 200 203 204 204 205 205 206 208 209 209 206 205 207 208 209 208 203 198 198 199 198 198 197 193 193 193 190
209 210 204 200 204 206 204 204 202 203 205 206 209 207 205 208 207 207 212 212 213 220 224 228 229 224 219 226 233 237 236 232 235 239 237 234 236 229 215 212 209 199 200 209 210 206 203 201 194 190 192 198 204 202 194 195 196 192 192 195 199 201 202 203 204 205 207 208 208 207 206 207 208 206 203 199 197 198 198 197 197 194 193 194 193 191
208 210 205 199 202 204 202 203 202 202 205 207 209 207 204 207 209 211 214 213 215 219 221 227 229 217 204 215 224 228 228 222 222 229 230 226 228 226 210 202 206 201 196 202 206 204 203 202 196 194 196 200 204 201 193 194 196 194 193 193 194 197 200 202 203 204 204 203 205 206 206 207 208 204 198 195 196 198 198 197 196 193 194 195 193 194
207 208 204 197 199 200 197 199 200 200 204 207 208 207 205 205 208 211 213 213 216 218 218 225 224 202 191 205 211 214 214 211 212 217 220 221 222 218 203 193 200 205 200 199 203 204 204 203 199 197 198 201 201 199 196 197 198 196 194 191 191 194 198 201 203 203 202 200 200 201 202 204 204 199 195 194 197 199 198 198 196 194 196 196 196 200
207 208 204 196 196 197 193 194 198 199 203 205 206 206 206 204 206 209 211 213 215 214 215 219 211 187 190 198 196 203 207 206 211 215 216 218 217 211 198 189 194 202 202 199 201 203 205 205 201 198 198 199 198 199 198 199 199 198 194 191 190 192 196 200 203 203 201 198 196 195 195 197 196 194 194 197 199 201 200 197 195 194 196 197 200 206
208 207 205 197 195 196 193 194 198 200 203 205 205 205 205 205 205 208 211 214 214 212 214 215 203 186 192 191 182 192 203 206 213 217 215 214 212 206 197 189 190 196 200 201 202 202 204 205 201 196 194 192 193 197 197 196 198 197 193 192 192 192 194 198 202 202 200 197 194 191 190 191 192 192 195 199 201 202 200 196 193 194 197 200 204 210
208 207 206 199 194 196 193 193 198 201 202 204 206 205 204 205 206 207 210 212 212 211 211 210 201 193 195 191 180 185 197 203 210 215 217 215 209 202 195 188 188 191 196 203 205 203 203 203 198 191 188 187 191 195 194 192 193 191 188 190 191 191 194 198 201 202 199 196 193 190 189 190 192 194 197 200 202 200 198 195 193 195 200 204 209 214
209 207 207 200 194 195 194 192 196 200 201 203 205 205 204 204 207 207 208 210 210 210 208 207 203 198 195 191 183 182 187 191 199 210 216 214 205 195 190 186 188 191 195 201 205 203 202 201 195 187 185 186 191 194 191 188 189 187 185 185 186 189 195 198 200 200 198 196 192 190 191 191 192 195 197 198 199 197 197 197 197 200 204 208 213 216
210 208 208 202 194 194 193 191 195 199 201 202 204 205 204 204 206 207 207 209 209 209 207 206 206 197 189 186 184 183 180 177 189 204 207 203 197 191 188 186 188 193 197 199 201 200 199 198 192 186 185 187 192 195 190 186 185 185 184 182 183 189 195 198 200 200 198 195 193 192 192 192 193 194 194 195 196 196 198 200 202 205 208 211 214 217
211 209 210 203 194 193 192 190 194 198 200 202 204 205 205 205 205 205 205 207 208 208 205 204 203 191 182 182 185 184 178 173 186 200 202 201 197 189 187 186 186 194 199 199 198 196 194 193 191 189 187 187 193 195 189 184 183 184 183 183 185 190 194 196 197 197 196 195 195 194 194 194 195 195 194 194 195 197 199 202 205 208 211 213 215 218
211 210 211 204 193 191 190 188 192 197 200 203 205 205 205 205 204 204 203 203 204 203 202 201 196 183 179 183 185 184 180 178 188 199 203 205 195 180 180 184 185 194 199 197 195 192 191 194 195 195 191 189 192 193 187 184 184 183 181 181 187 191 193 194 193 191 192 194 195 195 195 195 195 195 194 195 196 198 201 204 207 211 214 215 217 219
210 209 211 204 193 190 189 186 189 196 200 203 205 205 204 204 203 202 202 202 200 199 200 199 192 182 182 185 183 184 184 184 192 200 204 205 193 178 179 186 190 195 197 195 192 190 193 197 199 200 196 191 192 190 186 186 185 181 177 177 182 186 188 191 191 189 190 194 195 194 193 194 194 193 195 198 200 203 204 206 209 213 216 218 219 220
208 208 209 204 194 190 187 183 187 197 201 203 206 204 202 201 200 200 201 201 198 197 199 199 193 187 188 186 182 185 188 188 193 201 205 205 197 188 187 189 192 193 190 189 188 189 194 197 197 198 195 191 192 190 188 189 186 181 178 177 176 175 175 181 185 184 186 191 192 192 192 192 193 195 198 202 205 206 207 208 212 216 218 220 221 221
205 206 207 203 194 190 185 182 189 198 200 203 206 203 198 197 197 197 200 200 197 195 197 198 194 190 191 190 187 188 192 193 195 202 207 208 205 200 195 192 194 192 187 185 185 186 192 194 194 193 190 189 191 191 190 191 189 186 184 180 176 173 171 174 178 179 182 187 189 190 191 192 193 197 201 204 206 207 208 211 214 217 219 221 222 221
202 203 205 202 195 190 185 184 192 199 200 204 206 201 194 193 194 196 198 198 196 194 196 197 195 193 194 195 193 193 195 198 201 206 212 214 214 211 204 199 201 196 188 184 183 184 187 190 190 190 189 189 192 193 193 193 192 192 189 184 179 176 175 175 177 178 181 185 187 188 190 192 194 197 202 205 206 206 208 212 215 218 218 220 222 223
200 201 202 201 196 191 187 186 191 198 199 203 205 199 192 191 192 193 195 196 195 195 195 194 195 198 198 197 197 198 199 201 205 211 215 219 221 220 213 205 202 197 190 184 182 183 185 187 187 189 190 192 193 194 194 194 195 195 193 188 183 180 178 177 178 180 182 186 190 192 194 196 198 201 206 210 212 212 215 217 218 220 220 220 222 224
198 199 200 200 196 192 189 187 189 195 198 201 203 198 191 189 189 190 192 195 195 195 195 194 196 200 201 198 198 201 201 202 207 212 216 220 222 220 214 206 199 195 191 185 182 185 187 189 190 191 193 195 197 198 196 196 197 198 196 192 188 185 183 180 180 183 185 190 196 200 203 205 207 209 213 218 221 223 225 227 226 225 224 223 224 224
195 198 199 199 196 193 190 187 189 192 193 196 200 196 189 187 186 186 190 196 197 196 195 194 196 200 202 201 201 202 201 201 205 211 215 218 217 212 207 204 199 196 195 191 188 190 192 194 196 196 197 200 201 201 199 199 200 201 200 197 194 191 189 186 185 188 190 194 199 204 209 213 215 216 218 221 224 226 228 232 235 233 230 227 226 226
191 197 199 199 195 194 191 188 189 190 186 190 195 193 189 188 187 187 192 197 198 196 195 194 196 201 203 203 205 206 203 201 204 209 212 212 210 205 202 200 198 198 200 200 199 197 197 199 201 201 202 202 202 202 202 201 200 201 201 201 199 197 195 193 193 195 197 199 202 206 211 217 221 223 223 224 226 227 229 233 237 238 236 232 229 228
187 194 199 198 195 194 194 191 190 190 185 187 191 192 191 191 191 192 196 198 197 195 193 193 196 200 204 206 208 210 208 205 204 207 210 209 207 202 198 197 196 198 202 204 203 199 197 197 199 199 200 200 201 203 204 203 203 202 202 203 203 201 200 200 199 200 203 205 207 209 211 216 222 226 228 228 228 229 231 235 238 241 241 237 232 229
182 190 197 198 196 196 197 193 189 189 188 186 186 189 192 194 195 196 198 199 198 194 191 192 195 199 204 207 209 211 211 209 206 205 208 208 206 200 195 193 193 196 200 204 203 201 199 196 195 195 196 197 199 202 204 205 206 206 206 206 206 206 206 205 203 203 206 209 210 211 212 215 220 225 230 232 232 232 234 237 241 245 245 241 235 230
181 187 194 197 196 199 200 195 191 190 190 187 185 186 190 194 196 196 198 200 198 193 190 192 194 197 202 207 210 210 213 214 209 205 207 208 207 203 197 193 193 194 198 202 204 205 205 201 197 197 197 197 198 200 202 205 207 208 208 208 209 209 209 207 205 205 208 211 212 212 213 214 216 221 227 231 235 237 239 241 244 247 248 245 239 232
182 188 194 195 196 200 202 198 195 193 191 187 184 183 188 193 195 194 196 199 196 192 191 193 194 196 201 206 209 210 212 213 208 205 207 210 210 208 204 199 197 198 199 202 205 206 207 205 201 200 199 199 199 200 202 204 206 207 207 206 207 208 208 207 206 207 209 212 213 213 213 212 213 216 222 227 231 236 241 244 244 246 248 248 242 235
182 190 195 196 196 200 202 199 198 198 194 189 185 183 187 192 195 194 195 195 193 191 192 193 194 197 200 204 208 210 209 208 205 204 207 210 210 211 210 206 204 204 204 206 208 209 209 208 206 205 203 201 201 201 202 204 206 206 206 205 205 205 206 207 208 209 211 213 213 214 213 213 213 214 218 223 226 230 236 242 244 244 246 248 247 241
179 187 195 198 199 201 203 203 202 200 198 192 186 185 187 190 194 196 194 192 191 192 193 195 197 198 200 204 208 208 205 203 204 204 205 208 209 211 214 214 213 212 212 212 213 213 212 211 210 209 207 204 203 202 203 205 207 208 209 209 209 208 208 209 209 211 212 213 214 215 215 215 215 215 216 220 224 227 230 236 242 244 245 246 247 246
173 180 189 198 202 204 205 207 206 203 201 196 187 186 186 187 191 195 193 190 191 192 194 197 199 200 201 204 206 205 201 200 202 203 205 208 210 213 216 218 220 221 222 221 219 217 216 215 213 211 209 208 207 206 206 207 209 211 212 213 214 214 214 214 214 215 216 216 217 217 217 218 218 218 217 218 221 225 227 231 235 240 244 247 247 246
175 174 180 192 200 205 207 209 209 206 205 203 193 185 182 182 187 193 193 190 191 194 195 198 200 201 202 204 205 202 198 197 199 202 206 209 210 212 216 220 222 225 226 224 222 220 217 215 215 214 212 211 210 210 209 208 208 210 212 214 216 217 217 217 217 218 219 220 220 220 219 220 221 221 221 219 220 223 226 228 231 235 239 243 245 246
180 177 176 184 195 203 207 209 210 209 209 208 201 191 183 181 184 190 192 191 193 196 198 199 201 203 203 204 205 202 198 197 199 203 207 210 211 213 217 219 221 224 225 223 222 221 218 215 214 215 215 214 214 213 212 211 208 207 209 212 215 218 220 220 220 220 221 223 224 224 223 224 225 225 226 225 224 225 225 227 229 231 234 237 240 242
190 186 180 180 190 199 205 208 210 211 211 212 209 203 193 185 185 189 191 191 194 199 200 199 202 205 205 204 206 206 203 201 202 206 209 212 214 216 217 217 218 221 224 223 221 220 220 219 217 217 218 219 219 217 216 215 213 210 210 212 214 216 219 222 224 225 225 226 227 228 229 229 230 231 232 232 232 232 231 230 230 231 233 235 237 239
207 196 185 181 187 197 204 208 210 211 212 214 215 213 207 196 188 189 192 193 194 199 202 200 201 204 206 206 207 208 208 207 206 208 212 215 216 215 216 217 219 222 225 225 223 221 222 222 223 226 228 229 228 225 222 220 219 217 217 219 219 219 219 221 224 226 228 229 230 231 231 232 233 234 236 236 237 238 238 238 237 236 237 239 241 242
Height
5826 5826 5827 5834 5840 5843 5843 5844 5846 5848 5849 5850 5851 5854 5857 5859 5863 5866 5867 5868 5867 5866 5869 5872 5874 5875 5876 5878 5880 5881 5882 5884 5885 5887 5889 5891 5891 5892 5891 5892 5892 5893 5893 5893 5894 5894 5895 5895 5896 5896 5896 5897 5899 5900 5902 5904 5905 5906 5907 5909 5911 5913 5915 5917 5919 5921 5923 5924 5925 5927 5928 5929 5930 5931 5933 5934 5934 5935 5936 5937 5938 5939 5939 5940 5941 5941
5818 5820 5827 5836 5839 5838 5838 5840 5841 5843 5845 5847 5848 5851 5854 5856 5861 5863 5863 5863 5863 5864 5867 5868 5869 5871 5874 5876 5877 5879 5881 5883 5884 5886 5888 5889 5890 5891 5891 5891 5892 5892 5892 5893 5893 5894 5894 5895 5895 5895 5896 5897 5898 5899 5901 5903 5904 5906 5907 5908 5910 5912 5914 5916 5918 5920 5922 5923 5924 5925 5927 5928 5930 5931 5933 5934 5935 5936 5937 5938 5939 5939 5940 5941 5942 5942
5813 5819 5830 5834 5833 5832 5834 5835 5837 5840 5841 5843 5844 5847 5851 5855 5858 5859 5859 5860 5860 5862 5865 5865 5866 5869 5872 5874 5875 5877 5879 5881 5883 5884 5886 5887 5888 5889 5890 5890 5891 5891 5892 5893 5893 5893 5894 5894 5894 5895 5896 5897 5898 5898 5900 5902 5904 5906 5907 5908 5910 5912 5914 5916 5918 5919 5921 5922 5923 5925 5927 5928 5929 5931 5932 5934 5935 5936 5937 5938 5939 5940 5941 5942 5943 5943
5812 5823 5831 5828 5827 5828 5830 5832 5834 5836 5837 5838 5840 5844 5849 5853 5855 5856 5858 5858 5858 5861 5862 5862 5864 5866 5869 5870 5871 5874 5877 5879 5880 5881 5883 5884 5886 5887 5888 5888 5889 5890 5892 5892 5893 5893 5894 5894 5894 5895 5895 5896 5897 5898 5899 5901 5904 5906 5907 5908 5910 5912 5914 5916 5917 5919 5920 5922 5924 5925 5927 5929 5930 5931 5933 5934 5936 5937 5938 5939 5940 5941 5942 5943 5943 5944
5811 5822 5824 5821 5822 5825 5826 5828 5830 5831 5833 5835 5837 5842 5848 5851 5853 5856 5856 5855 5856 5859 5860 5859 5859 5860 5863 5865 5869 5873 5874 5876 5878 5878 5880 5883 5885 5885 5887 5888 5888 5889 5890 5892 5893 5893 5893 5894 5894 5894 5895 5896 5897 5898 5899 5901 5903 5905 5907 5908 5909 5911 5913 5915 5917 5918 5920 5923 5925 5927 5929 5930 5932 5933 5934 5935 5936 5937 5938 5939 5940 5941 5942 5943 5943 5944
5808 5817 5816 5815 5818 5821 5822 5824 5826 5829 5832 5833 5835 5841 5847 5849 5851 5853 5852 5851 5853 5856 5857 5857 5855 5856 5858 5862 5867 5870 5871 5873 5875 5876 5879 5881 5883 5883 5885 5887 5887 5887 5889 5891 5892 5893 5893 5893 5893 5894 5894 5895 5897 5898 5899 5900 5902 5904 5906 5907 5909 5911 5913 5914 5916 5918 5921 5923 5926 5928 5929 5931 5932 5933 5933 5934 5935 5937 5938 5939 5941 5941 5942 5943 5944 5944
5804 5810 5810 5810 5813 5815 5816 5819 5823 5826 5828 5831 5836 5842 5845 5846 5848 5848 5847 5848 5849 5853 5855 5854 5852 5854 5856 5859 5864 5866 5868 5871 5873 5874 5877 5879 5880 5882 5884 5886 5887 5887 5888 5889 5891 5892 5893 5893 5893 5893 5894 5895 5896 5896 5898 5900 5901 5903 5905 5907 5909 5911 5912 5914 5916 5919 5921 5923 5926 5927 5929 5929 5930 5931 5932 5933 5935 5937 5938 5939 5941 5942 5942 5943 5944 5944
5798 5803 5802 5804 5808 5809 5811 5815 5821 5823 5826 5832 5836 5839 5839 5842 5845 5845 5845 5845 5847 5852 5852 5849 5850 5851 5853 5857 5861 5863 5865 5867 5869 5872 5875 5877 5878 5880 5882 5884 5885 5886 5887 5888 5890 5891 5892 5893 5893 5893 5894 5894 5895 5896 5897 5899 5901 5903 5905 5907 5909 5910 5912 5914 5916 5919 5921 5923 5925 5927 5928 5929 5930 5931 5932 5934 5935 5936 5938 5939 5940 5942 5942 5943 5944 5944
5795 5798 5799 5802 5804 5806 5810 5816 5820 5820 5824 5831 5833 5832 5834 5839 5842 5843 5842 5843 5847 5848 5845 5846 5848 5847 5849 5855 5858 5858 5860 5863 5866 5870 5873 5875 5877 5879 5881 5882 5884 5884 5885 5887 5888 5890 5891 5892 5892 5893 5893 5894 5895 5896 5897 5899 5901 5902 5904 5906 5908 5910 5912 5914 5916 5918 5920 5922 5924 5926 5927 5929 5930 5932 5933 5934 5935 5936 5937 5939 5940 5941 5942 5943 5944 5944
5790 5793 5794 5796 5799 5804 5809 5814 5815 5815 5821 5827 5827 5827 5831 5834 5837 5838 5837 5840 5844 5840 5838 5843 5845 5844 5847 5851 5852 5851 5855 5859 5864 5868 5871 5874 5876 5878 5879 5881 5882 5882 5883 5885 5887 5888 5890 5890 5891 5892 5892 5893 5894 5895 5896 5898 5900 5901 5903 5905 5907 5910 5912 5914 5916 5918 5919 5921 5923 5925 5927 5928 5930 5932 5933 5934 5935 5936 5937 5939 5940 5941 5942 5943 5944 5944
5782 5784 5785 5788 5794 5801 5805 5807 5809 5812 5818 5822 5821 5823 5825 5828 5832 5832 5832 5837 5837 5829 5833 5842 5842 5842 5843 5846 5847 5849 5854 5859 5863 5866 5869 5872 5874 5875 5877 5878 5879 5880 5881 5884 5886 5887 5889 5889 5890 5891 5892 5893 5893 5895 5896 5897 5899 5901 5903 5905 5907 5909 5911 5914 5915 5917 5919 5921 5923 5925 5926 5928 5930 5932 5933 5934 5934 5935 5937 5938 5939 5941 5942 5943 5944 5944
5772 5773 5776 5782 5788 5793 5795 5798 5803 5807 5812 5814 5815 5817 5819 5822 5826 5826 5827 5831 5825 5821 5832 5841 5841 5838 5837 5842 5847 5850 5855 5859 5860 5864 5867 5869 5872 5874 5875 5876 5877 5879 5880 5882 5884 5886 5887 5888 5890 5890 5891 5892 5893 5894 5896 5897 5899 5901 5903 5905 5906 5908 5910 5913 5915 5917 5919 5921 5922 5924 5926 5928 5929 5931 5932 5933 5934 5935 5936 5937 5939 5940 5941 5943 5943 5944
5763 5765 5771 5776 5780 5783 5786 5791 5796 5800 5804 5807 5809 5811 5812 5816 5818 5817 5819 5820 5816 5818 5831 5839 5838 5833 5832 5840 5847 5849 5854 5856 5857 5861 5863 5867 5870 5872 5874 5875 5876 5877 5878 5879 5882 5884 5886 5887 5889 5889 5890 5891 5892 5894 5895 5896 5899 5901 5902 5904 5906 5908 5910 5912 5914 5916 5918 5920 5922 5924 5925 5927 5929 5930 5931 5933 5934 5934 5935 5937 5938 5939 5941 5942 5943 5943
5755 5759 5763 5767 5772 5777 5781 5786 5790 5793 5798 5801 5803 5805 5807 5810 5810 5809 5812 5814 5813 5818 5829 5837 5835 5828 5829 5839 5843 5846 5853 5855 5855 5858 5860 5864 5867 5869 5871 5873 5874 5875 5876 5877 5879 5882 5884 5886 5887 5888 5889 5890 5891 5893 5894 5896 5898 5900 5902 5903 5905 5907 5909 5910 5913 5915 5917 5919 5921 5923 5925 5927 5928 5929 5930 5932 5933 5934 5935 5936 5937 5938 5940 5941 5942 5943
5746 5751 5759 5765 5770 5774 5777 5782 5788 5792 5796 5799 5803 5805 5806 5808 5808 5809 5811 5813 5814 5818 5828 5834 5829 5822 5827 5837 5842 5845 5850 5852 5853 5855 5857 5861 5864 5866 5868 5869 5871 5872 5874 5875 5877 5879 5882 5884 5886 5887 5888 5889 5890 5892 5893 5895 5897 5899 5901 5902 5904 5906 5908 5910 5912 5914 5916 5918 5920 5923 5925 5926 5928 5929 5930 5931 5932 5933 5934 5935 5936 5937 5939 5940 5942 5942
5738 5747 5759 5765 5768 5771 5774 5780 5786 5788 5791 5796 5800 5801 5802 5807 5809 5811 5813 5814 5816 5819 5825 5826 5821 5820 5828 5836 5840 5842 5844 5848 5850 5852 5854 5857 5860 5862 5863 5865 5867 5869 5871 5873 5875 5877 5880 5882 5884 5885 5887 5888 5889 5891 5893 5894 5896 5897 5899 5901 5903 5905 5907 5909 5911 5913 5915 5917 5919 5922 5924 5926 5927 5928 5929 5930 5932 5933 5934 5934 5935 5936 5938 5939 5941 5942
5732 5742 5752 5754 5758 5766 5773 5779 5781 5782 5787 5791 5793 5794 5800 5807 5808 5810 5812 5815 5816 5815 5818 5820 5818 5821 5827 5832 5837 5839 5840 5844 5847 5849 5851 5854 5857 5859 5861 5863 5865 5866 5869 5871 5873 5876 5878 5881 5883 5884 5886 5887 5888 5890 5892 5893 5895 5896 5898 5900 5902 5904 5906 5908 5909 5912 5914 5916 5918 5920 5922 5924 5926 5927 5928 5930 5931 5932 5933 5934 5935 5936 5937 5939 5940 5941
5725 5737 5745 5746 5752 5762 5769 5773 5775 5778 5783 5785 5789 5795 5800 5803 5803 5806 5810 5811 5811 5810 5813 5817 5817 5819 5824 5828 5833 5836 5838 5840 5843 5846 5849 5851 5854 5856 5859 5862 5863 5865 5867 5869 5871 5874 5876 5879 5881 5882 5884 5885 5887 5889 5890 5892 5893 5894 5896 5898 5900 5902 5905 5907 5908 5910 5912 5914 5917 5919 5921 5923 5924 5926 5927 5928 5930 5931 5932 5933 5934 5935 5936 5937 5939 5940
5720 5731 5740 5743 5749 5755 5759 5762 5766 5771 5777 5782 5789 5794 5795 5795 5798 5800 5802 5803 5804 5804 5808 5813 5814 5815 5820 5825 5830 5834 5837 5839 5841 5844 5847 5850 5853 5855 5858 5861 5862 5863 5865 5866 5869 5872 5874 5876 5878 5880 5882 5883 5885 5887 5888 5890 5891 5893 5894 5896 5898 5901 5903 5904 5906 5908 5910 5912 5915 5917 5919 5921 5922 5924 5925 5927 5929 5930 5931 5932 5933 5934 5935 5936 5937 5938
5714 5724 5732 5736 5740 5746 5749 5752 5757 5766 5773 5779 5783 5786 5788 5793 5796 5798 5798 5800 5802 5802 5805 5811 5811 5812 5817 5823 5827 5831 5835 5839 5840 5842 5845 5848 5852 5855 5857 5859 5861 5862 5863 5864 5867 5869 5872 5875 5876 5878 5879 5881 5883 5885 5887 5888 5890 5892 5893 5895 5897 5899 5900 5902 5904 5906 5909 5911 5913 5915 5917 5919 5921 5922 5924 5926 5928 5929 5930 5931 5932 5933 5933 5934 5935 5937
5708 5716 5724 5730 5733 5738 5742 5747 5756 5765 5770 5773 5774 5777 5781 5786 5790 5794 5796 5798 5801 5801 5804 5808 5808 5810 5817 5822 5825 5829 5833 5836 5838 5840 5843 5846 5850 5853 5855 5857 5860 5862 5862 5863 5865 5867 5870 5872 5874 5875 5877 5879 5881 5882 5884 5886 5889 5890 5892 5893 5895 5897 5899 5901 5903 5905 5907 5909 5911 5913 5916 5918 5920 5921 5923 5925 5927 5928 5929 5930 5931 5932 5933 5934 5934 5935
5701 5708 5717 5724 5727 5732 5738 5748 5757 5762 5764 5768 5770 5773 5778 5780 5784 5787 5788 5792 5797 5799 5801 5804 5804 5808 5816 5820 5823 5826 5830 5833 5836 5838 5841 5844 5846 5850 5852 5855 5858 5860 5862 5863 5864 5866 5868 5870 5871 5873 5874 5876 5878 5880 5882 5884 5886 5888 5890 5892 5893 5895 5897 5899 5901 5904 5905 5907 5909 5912 5914 5915 5917 5919 5922 5924 5926 5927 5928 5929 5930 5931 5933 5934 5934 5935
5694 5701 5711 5718 5722 5729 5738 5746 5752 5756 5759 5762 5765 5769 5775 5777 5779 5782 5785 5790 5794 5795 5798 5801 5802 5807 5816 5819 5820 5823 5827 5830 5833 5834 5837 5840 5843 5846 5849 5852 5854 5857 5860 5861 5862 5864 5865 5867 5869 5870 5872 5874 5876 5879 5881 5883 5885 5886 5888 5889 5891 5894 5896 5898 5899 5901 5903 5905 5907 5910 5911 5913 5915 5918 5920 5923 5925 5926 5927 5928 5929 5931 5932 5933 5934 5934
5690 5697 5706 5715 5721 5729 5738 5743 5748 5753 5756 5757 5759 5764 5768 5772 5777 5782 5786 5790 5792 5793 5798 5800 5802 5808 5816 5817 5818 5821 5823 5826 5828 5830 5832 5835 5838 5842 5845 5848 5850 5853 5856 5858 5860 5861 5863 5864 5866 5867 5870 5872 5874 5877 5880 5881 5883 5884 5885 5887 5889 5892 5894 5896 5897 5899 5900 5903 5905 5907 5910 5912 5914 5917 5919 5921 5923 5925 5926 5927 5928 5930 5931 5932 5933 5934
5685 5691 5700 5711 5718 5724 5733 5738 5742 5746 5746 5747 5753 5759 5763 5769 5776 5780 5783 5787 5789 5791 5796 5798 5801 5809 5813 5814 5816 5819 5820 5823 5825 5826 5829 5831 5833 5837 5841 5844 5846 5849 5853 5855 5856 5858 5859 5861 5863 5865 5867 5870 5873 5876 5878 5880 5881 5882 5884 5885 5888 5890 5892 5894 5895 5897 5899 5901 5903 5905 5908 5911 5913 5916 5918 5920 5921 5923 5925 5926 5927 5928 5929 5931 5932 5933
5680 5685 5693 5703 5709 5715 5722 5728 5732 5735 5737 5742 5749 5755 5761 5766 5770 5774 5778 5780 5783 5788 5793 5794 5800 5808 5810 5810 5814 5816 5818 5821 5822 5823 5826 5828 5830 5833 5838 5840 5842 5846 5849 5851 5853 5855 5856 5858 5861 5863 5865 5868 5871 5874 5876 5878 5879 5881 5882 5884 5885 5887 5890 5892 5894 5896 5898 5899 5902 5904 5907 5910 5912 5914 5916 5918 5920 5921 5923 5925 5926 5927 5928 5930 5930 5931
5676 5681 5687 5696 5703 5709 5716 5721 5725 5728 5733 5741 5747 5752 5758 5762 5765 5769 5772 5774 5779 5786 5789 5792 5799 5805 5805 5807 5811 5814 5817 5819 5820 5822 5824 5826 5828 5831 5835 5838 5840 5843 5846 5849 5850 5852 5854 5856 5858 5861 5863 5866 5869 5872 5874 5876 5878 5879 5881 5882 5884 5885 5888 5890 5892 5894 5897 5899 5901 5903 5906 5908 5911 5912 5914 5916 5917 5919 5921 5923 5925 5926 5927 5928 5929 5930
5672 5677 5683 5691 5699 5704 5710 5715 5720 5725 5732 5739 5744 5749 5754 5758 5760 5762 5765 5770 5778 5782 5785 5791 5798 5801 5802 5805 5809 5812 5815 5817 5819 5822 5824 5825 5828 5830 5833 5835 5837 5840 5843 5846 5847 5849 5851 5854 5856 5858 5861 5864 5867 5869 5871 5873 5875 5877 5879 5881 5882 5884 5886 5889 5891 5893 5895 5898 5900 5902 5905 5907 5909 5910 5912 5914 5916 5918 5919 5921 5923 5924 5926 5927 5928 5929
5668 5674 5679 5686 5694 5700 5706 5713 5718 5723 5730 5736 5740 5745 5749 5753 5755 5757 5761 5768 5775 5778 5783 5790 5795 5798 5801 5804 5807 5811 5813 5815 5818 5821 5823 5826 5828 5830 5831 5833 5835 5838 5840 5842 5844 5847 5850 5852 5854 5857 5859 5862 5864 5867 5869 5871 5873 5875 5877 5879 5881 5883 5885 5888 5890 5892 5894 5897 5899 5901 5903 5905 5906 5908 5910 5912 5914 5916 5918 5920 5921 5923 5924 5925 5926 5927
5665 5671 5675 5682 5691 5698 5705 5712 5715 5720 5726 5731 5735 5739 5742 5747 5751 5755 5760 5766 5772 5776 5783 5789 5792 5796 5800 5802 5806 5809 5810 5812 5815 5819 5822 5825 5827 5829 5830 5832 5834 5836 5838 5840 5842 5845 5848 5851 5853 5855 5857 5860 5863 5865 5867 5870 5872 5875 5877 5878 5880 5882 5884 5886 5889 5891 5893 5896 5898 5899 5901 5903 5905 5906 5908 5911 5913 5915 5916 5918 5920 5921 5922 5923 5924 5925
5662 5668 5671 5680 5690 5697 5703 5708 5712 5718 5723 5727 5730 5734 5739 5744 5750 5755 5760 5765 5769 5775 5780 5785 5788 5793 5797 5800 5803 5805 5806 5809 5813 5817 5820 5823 5825 5827 5829 5830 5833 5834 5836 5838 5840 5843 5846 5849 5851 5853 5856 5859 5861 5864 5866 5869 5871 5874 5875 5877 5879 5881 5883 5885 5887 5890 5892 5894 5895 5897 5899 5901 5903 5905 5907 5909 5911 5912 5914 5916 5918 5919 5920 5921 5922 5923
5658 5664 5668 5678 5689 5694 5699 5705 5711 5716 5720 5723 5726 5731 5737 5742 5748 5753 5758 5761 5766 5771 5777 5781 5785 5789 5793 5796 5799 5802 5804 5807 5810 5814 5818 5820 5823 5825 5827 5829 5831 5833 5835 5837 5839 5841 5844 5846 5848 5851 5854 5857 5860 5863 5865 5868 5870 5872 5874 5876 5878 5879 5882 5884 5886 5888 5890 5892 5894 5896 5898 5900 5902 5904 5906 5907 5909 5910 5912 5914 5916 5917 5918 5919 5920 5921
5655 5660 5666 5676 5686 5691 5696 5702 5709 5713 5716 5719 5722 5728 5734 5740 5745 5751 5755 5758 5763 5768 5773 5777 5782 5786 5789 5792 5796 5799 5801 5804 5808 5811 5815 5817 5820 5823 5825 5828 5830 5832 5834 5835 5837 5840 5842 5844 5846 5849 5852 5855 5859 5862 5864 5867 5870 5872 5874 5875 5877 5878 5880 5882 5885 5887 5889 5891 5893 5895 5897 5899 5901 5903 5904 5906 5907 5908 5910 5912 5914 5915 5916 5917 5918 5919
5651 5657 5664 5674 5683 5688 5693 5701 5706 5709 5711 5715 5719 5725 5732 5737 5743 5747 5751 5755 5760 5765 5770 5775 5778 5781 5784 5788 5792 5795 5798 5801 5804 5808 5811 5814 5818 5821 5823 5826 5828 5830 5832 5834 5836 5838 5840 5842 5845 5847 5850 5854 5857 5860 5863 5865 5868 5870 5871 5873 5875 5877 5879 5881 5883 5886 5887 5889 5891 5893 5895 5897 5899 5901 5902 5903 5905 5906 5908 5910 5911 5913 5914 5915 5916 5917
5648 5655 5662 5671 5680 5684 5690 5698 5701 5703 5706 5711 5715 5722 5729 5734 5738 5742 5746 5751 5756 5762 5767 5771 5774 5777 5781 5785 5788 5792 5795 5798 5801 5805 5808 5811 5814 5818 5821 5824 5826 5828 5830 5832 5834 5837 5839 5841 5843 5846 5849 5852 5855 5857 5860 5863 5865 5867 5869 5871 5873 5875 5878 5880 5882 5884 5886 5888 5890 5892 5894 5896 5898 5899 5900 5902 5903 5905 5907 5908 5909 5910 5911 5912 5914 5915
5644 5651 5659 5668 5676 5681 5686 5692 5695 5699 5704 5708 5713 5721 5727 5732 5735 5739 5743 5748 5754 5759 5764 5768 5772 5774 5777 5781 5785 5789 5792 5796 5799 5802 5805 5808 5811 5814 5818 5821 5824 5826 5828 5830 5832 5835 5837 5839 5842 5844 5847 5850 5852 5855 5857 5860 5863 5865 5867 5869 5872 5874 5876 5878 5881 5883 5885 5887 5889 5891 5893 5895 5896 5898 5899 5900 5902 5904 5905 5906 5907 5908 5908 5910 5911 5913
5640 5648 5656 5665 5672 5677 5683 5688 5694 5699 5702 5704 5710 5717 5723 5727 5731 5735 5740 5745 5751 5756 5761 5765 5768 5770 5772 5776 5781 5785 5789 5793 5797 5800 5802 5805 5808 5811 5815 5818 5821 5824 5826 5828 5830 5834 5836 5838 5840 5842 5845 5847 5850 5852 5855 5858 5860 5862 5865 5868 5870 5873 5875 5877 5880 5882 5884 5887 5888 5890 5892 5894 5895 5897 5898 5899 5901 5902 5903 5904 5904 5905 5906 5907 5909 5910
5637 5645 5654 5662 5669 5674 5680 5686 5693 5696 5697 5700 5706 5713 5719 5724 5728 5733 5738 5743 5748 5753 5758 5761 5764 5766 5769 5773 5778 5782 5786 5791 5794 5796 5799 5802 5805 5809 5813 5815 5818 5822 5824 5826 5829 5831 5834 5835 5837 5840 5842 5845 5847 5850 5853 5856 5858 5861 5864 5867 5869 5872 5874 5876 5879 5881 5883 5885 5887 5889 5890 5892 5894 5895 5897 5898 5899 5900 5901 5902 5902 5903 5904 5905 5906 5908
5634 5642 5651 5659 5665 5670 5676 5683 5689 5693 5693 5695 5701 5709 5716 5721 5725 5730 5735 5740 5745 5750 5755 5759 5761 5763 5766 5770 5774 5778 5783 5788 5791 5793 5796 5799 5803 5807 5810 5813 5816 5819 5822 5825 5827 5829 5831 5833 5836 5838 5841 5843 5846 5850 5853 5855 5857 5860 5863 5865 5868 5870 5873 5875 5877 5879 5881 5883 5885 5887 5889 5890 5892 5893 5895 5896 5897 5898 5899 5899 5900 5900 5901 5903 5904 5905
5632 5640 5649 5656 5663 5668 5674 5680 5685 5689 5690 5691 5697 5707 5714 5719 5723 5728 5732 5737 5742 5747 5752 5756 5758 5761 5764 5767 5771 5775 5781 5785 5788 5791 5794 5798 5801 5805 5808 5811 5814 5817 5820 5823 5825 5828 5830 5832 5835 5837 5840 5842 5846 5849 5851 5853 5856 5858 5861 5863 5865 5868 5871 5873 5875 5877 5879 5881 5883 5885 5886 5888 5890 5891 5892 5894 5895 5895 5896 5897 5897 5898 5899 5900 5901 5902
5631 5639 5647 5654 5660 5666 5671 5676 5681 5686 5688 5689 5695 5704 5711 5716 5720 5725 5729 5733 5738 5743 5748 5752 5755 5758 5761 5764 5768 5773 5778 5782 5785 5788 5792 5795 5799 5803 5806 5809 5811 5815 5818 5820 5824 5827 5829 5832 5834 5836 5839 5842 5845 5847 5849 5851 5853 5856 5858 5860 5863 5866 5868 5870 5873 5875 5877 5879 5881 5882 5884 5886 5887 5888 5890 5891 5891 5892 5893 5894 5894 5895 5896 5897 5898 5899
5629 5636 5643 5650 5656 5661 5666 5672 5678 5684 5687 5688 5692 5700 5707 5712 5716 5720 5725 5730 5734 5739 5743 5748 5751 5755 5758 5761 5764 5769 5774 5778 5782 5785 5789 5793 5797 5800 5804 5807 5809 5812 5815 5818 5821 5824 5827 5829 5832 5834 5837 5839 5842 5844 5846 5848 5851 5853 5855 5857 5860 5862 5865 5867 5869 5871 5874 5876 5878 5880 5881 5883 5885 5886 5887 5887 5888 5889 5890 5891 5892 5892 5893 5894 5895 5896
5627 5632 5638 5646 5652 5657 5662 5669 5675 5680 5684 5686 5690 5695 5700 5705 5709 5715 5721 5726 5730 5735 5740 5744 5748 5752 5755 5758 5762 5766 5770 5774 5778 5782 5786 5789 5793 5797 5801 5804 5807 5810 5813 5816 5819 5821 5824 5826 5829 5831 5833 5836 5838 5840 5842 5844 5847 5849 5851 5854 5857 5859 5861 5863 5865 5867 5870 5872 5874 5876 5878 5880 5881 5882 5883 5884 5885 5886 5887 5888 5889 5890 5891 5891 5892 5893
5626 5631 5637 5644 5650 5653 5659 5666 5672 5676 5680 5684 5687 5692 5694 5698 5703 5709 5715 5720 5726 5733 5737 5741 5745 5749 5752 5755 5759 5763 5767 5771 5775 5779 5782 5786 5789 5793 5797 5801 5804 5807 5810 5813 5816 5819 5821 5823 5826 5828 5830 5832 5835 5837 5839 5841 5843 5845 5847 5850 5852 5855 5857 5860 5861 5863 5865 5868 5870 5872 5873 5875 5877 5878 5880 5881 5882 5883 5884 5885 5886 5887 5888 5889 5889 5890
5625 5630 5636 5643 5648 5652 5658 5665 5670 5673 5677 5681 5685 5688 5691 5695 5701 5705 5709 5715 5722 5728 5733 5737 5741 5745 5749 5752 5756 5760 5764 5767 5771 5775 5779 5783 5786 5789 5793 5796 5800 5803 5806 5809 5812 5815 5818 5820 5823 5825 5827 5829 5832 5834 5836 5838 5840 5842 5845 5847 5849 5851 5853 5855 5857 5859 5861 5863 5865 5867 5869 5871 5873 5875 5876 5878 5879 5880 5881 5881 5883 5884 5886 5886 5887 5888
5625 5630 5636 5641 5647 5653 5659 5664 5667 5670 5676 5680 5683 5686 5688 5691 5696 5700 5703 5709 5717 5722 5727 5732 5736 5741 5746 5749 5753 5757 5760 5764 5768 5772 5776 5780 5783 5786 5789 5793 5796 5799 5803 5806 5808 5811 5814 5817 5819 5822 5824 5827 5829 5831 5833 5836 5838 5840 5843 5845 5846 5848 5850 5852 5854 5856 5857 5859 5861 5863 5865 5867 5869 5870 5872 5874 5875 5876 5878 5879 5880 5881 5882 5884 5885 5885
5625 5630 5634 5639 5646 5652 5656 5660 5665 5670 5675 5678 5681 5684 5686 5687 5690 5694 5698 5704 5712 5717 5721 5726 5731 5736 5741 5745 5748 5752 5756 5760 5764 5768 5773 5776 5780 5783 5786 5790 5793 5796 5799 5802 5805 5807 5810 5813 5816 5819 5821 5824 5826 5829 5831 5833 5835 5837 5840 5842 5844 5846 5848 5849 5851 5853 5854 5856 5857 5859 5861 5863 5864 5866 5867 5869 5870 5872 5874 5875 5876 5878 5879 5880 5882 5882
5625 5629 5632 5637 5644 5649 5651 5655 5661 5666 5671 5675 5678 5682 5684 5683 5686 5692 5697 5702 5708 5712 5716 5720 5725 5729 5734 5739 5743 5746 5751 5756 5760 5764 5768 5772 5776 5780 5784 5787 5790 5794 5796 5799 5802 5804 5806 5809 5812 5815 5818 5821 5823 5826 5828 5830 5833 5835 5837 5839 5841 5843 5845 5846 5848 5849 5851 5852 5854 5855 5856 5858 5859 5861 5862 5864 5866 5867 5869 5871 5873 5874 5876 5877 5878 5878
5625 5628 5631 5634 5641 5645 5647 5652 5657 5662 5667 5671 5674 5678 5681 5681 5683 5688 5694 5699 5704 5708 5710 5715 5720 5724 5729 5734 5738 5741 5745 5750 5755 5759 5764 5768 5772 5776 5780 5783 5787 5790 5793 5796 5799 5801 5804 5806 5809 5811 5814 5817 5820 5823 5826 5828 5830 5832 5834 5836 5838 5840 5841 5843 5845 5846 5848 5849 5850 5851 5853 5854 5855 5857 5858 5860 5861 5863 5865 5866 5868 5870 5871 5872 5873 5874
5625 5628 5630 5633 5638 5642 5645 5648 5653 5658 5662 5667 5670 5673 5676 5679 5681 5685 5688 5694 5699 5702 5705 5709 5714 5720 5725 5729 5734 5737 5741 5745 5749 5754 5759 5763 5767 5771 5775 5779 5782 5786 5790 5793 5796 5798 5801 5803 5806 5808 5811 5813 5816 5819 5822 5824 5826 5828 5830 5833 5835 5837 5838 5840 5842 5843 5845 5846 5847 5849 5850 5851 5852 5854 5855 5857 5858 5860 5861 5862 5864 5865 5867 5868 5869 5870
5625 5627 5630 5633 5636 5640 5642 5646 5650 5655 5660 5664 5667 5669 5672 5675 5679 5682 5685 5689 5694 5697 5700 5703 5708 5715 5720 5725 5729 5733 5737 5740 5745 5749 5754 5758 5763 5767 5771 5774 5778 5782 5785 5789 5792 5795 5798 5800 5803 5805 5807 5809 5812 5814 5817 5820 5822 5825 5827 5829 5831 5833 5835 5837 5838 5840 5841 5843 5844 5845 5847 5848 5849 5851 5852 5854 5855 5856 5858 5859 5860 5861 5862 5863 5864 5865